Air Resources Laboratory banner image
Air Resources Laboratory web site National Oceanic and Atmospheric Administration (NOAA)

la roundup


Office: LIX

ASUS44 KLIX 210805
RWRLA
LOUISIANA WEATHER ROUNDUP
NATIONAL WEATHER SERVICE NEW ORLEANS LA
300 AM CDT TUE AUG 21 2018

NOTE: "FAIR" INDICATES FEW OR NO CLOUDS BELOW 12,000 FEET WITH NO
      SIGNIFICANT WEATHER AND/OR OBSTRUCTIONS TO VISIBILITY.
      SKY/WX - SKY CONDITION AND SIGNIFICANT WEATHER.
      TMP - AIR TEMPERATURE.    DP   - DEWPOINT TEMPERATURE.
      RH  - RELATIVE HUMIDITY.  PRES - PRESSURE.
      HX  - HEAT INDEX.         WCI  - WIND CHILL INDEX.

*  THESE STATIONS ARE NOT NWS OR FAA STATIONS AND ARE NOT UNDER
   NWS QUALITY CONTROL.

LAZ040-048-061>063-065-066-069-210900-
SOUTHEAST LOUISIANA

CITY           SKY/WX    TMP DP  RH WIND       PRES   REMARKS
N.O. INTL ARPT FAIR      80  79  96 SW5       30.05F
N.O. LAKEFRONT FAIR      81  77  88 SW6       30.05F
N.O. DOWNTOWN* FAIR      81  77  88 S3        30.06F
RESERVE*         N/A     80  77  89 W5        30.05F
SLIDELL        MOCLDY    76  73  91 CALM      30.05S
BATON ROUGE    FAIR      77  75  93 NE3       30.04F
BOOTHVILLE     FAIR      84  77  79 S8        30.06F
BELLE CHASSE   FAIR      76  76 100 CALM      30.05S FOG
BOGALUSA*      FAIR      75  73  91 S9        30.02F
GALLIANO*      FAIR      77  74  90 S3        30.06S
NEW ROADS*     PTSUNNY   74  74  98 CALM      30.04F
GONZALES*      FAIR      74  74  98 S3        30.04S
HAMMOND*         N/A     75  73  94 CALM      30.04F
HOUMA*         FAIR      77  77  98 CALM      30.06S
PORT FOURCHON* PTSUNNY   84  77  79 SW9       30.06F

$$

LAZ041-044-053-054-210900-
SOUTHWEST LOUISIANA

CITY           SKY/WX    TMP DP  RH WIND       PRES   REMARKS
LAKE CHARLES   FAIR      84  78  82 SW7       30.03R HX  95
LAFAYETTE      FAIR      79  78  97 S5        30.04S
PATTERSON        N/A    N/A N/A N/A MISG        N/A
SALT POINT       N/A    N/A N/A N/A VRB7      30.03S
NEW IBERIA     FAIR      78  75  90 SW5       30.04S
CHENAULT AIRPK FAIR      82  77  84 SW7       30.03S

$$

LAZ027-028-210900-
CENTRAL LOUISIANA

CITY           SKY/WX    TMP DP  RH WIND       PRES   REMARKS
FORT POLK      LGT RAIN  80  76  89 W9        30.02F
ALEXANDRIA INT CLOUDY    82  76  81 S6        30.01S
ALEXANDRIA     CLOUDY    75  75 100 CALM      30.03S

$$

LAZ001-002-210900-
NORTHWEST LOUISIANA

CITY           SKY/WX    TMP DP  RH WIND       PRES   REMARKS
SHREVEPORT     FAIR      75  67  76 SW3       30.01R
BARKSDALE AFB  FAIR      75  66  74 S3        30.01R
DTN SHREVEPORT FAIR      79  67  66 CALM      30.01S

$$

LAZ014-016-210900-
NORTHEAST LOUISIANA

CITY           SKY/WX    TMP DP  RH WIND       PRES   REMARKS
MONROE         CLOUDY    74  73  97 CALM      30.00S
TALLULAH       MOCLDY    71  71 100 CALM      29.99F

$$



ASUS44 KLIX 210805
RWRLIX
NEW ORLEANS REGIONAL WEATHER ROUNDUP
NATIONAL WEATHER SERVICE NEW ORLEANS LA
300 AM CDT TUE AUG 21 2018

NOTE: "FAIR" INDICATES FEW OR NO CLOUDS BELOW 12,000 FEET WITH NO
      SIGNIFICANT WEATHER AND/OR OBSTRUCTIONS TO VISIBILITY.
      SKY/WX - SKY CONDITION AND SIGNIFICANT WEATHER.
      TMP - AIR TEMPERATURE.     DP    - DEWPOINT TEMPERATURE.
      RH  - RELATIVE HUMIDITY.   PRES  - PRESSURE.
      HI  - HEAT INDEX.          WCI   - WIND CHILL INDEX.

*  THESE STATIONS ARE NOT NWS OR FAA STATIONS AND ARE NOT UNDER
   NWS QUALITY CONTROL.

LAZ038-040-048-061>063-065>067-069-210900-
SOUTHEAST LOUISIANA

CITY           SKY/WX    TMP DP  RH WIND       PRES   REMARKS
N.O. INTL ARPT FAIR      80  79  96 SW5       30.05F
N.O. LAKEFRONT FAIR      81  77  88 SW6       30.05F
N.O. DOWNTOWN* FAIR      81  77  88 S3        30.06F
RESERVE*         N/A     80  77  89 W5        30.05F
SLIDELL        MOCLDY    76  73  91 CALM      30.05S
BATON ROUGE    FAIR      77  75  93 NE3       30.04F
BOOTHVILLE     FAIR      84  77  79 S8        30.06F
BELLE CHASSE   FAIR      76  76 100 CALM      30.05S FOG
BOGALUSA*      FAIR      75  73  91 S9        30.02F
GALLIANO*      FAIR      77  74  90 S3        30.06S
NEW ROADS*     PTSUNNY   74  74  98 CALM      30.04F
GONZALES*      FAIR      74  74  98 S3        30.04S
HAMMOND*         N/A     75  73  94 CALM      30.04F
HOUMA*         FAIR      77  77  98 CALM      30.06S
PORT FOURCHON* PTSUNNY   84  77  79 SW9       30.06F

$$

MSZ070-080>082-210900-
SOUTHERN MISSISSIPPI

CITY           SKY/WX    TMP DP  RH WIND       PRES   REMARKS
MCCOMB         FAIR      75  72  90 SW5       30.03S
GULFPORT       FAIR      81  77  88 VRB3      30.04S
BILOXI         FAIR      82  77  86 SW12      30.04S
PASCAGOULA     FAIR      81  77  88 VRB5      30.05S

$$

COASTAL OBSERVATIONS
LAKE AND NEARSHORE STATIONS

STATION/POSITION TIME  SKY/WX   TEMP    WIND        PRES    WAVE
                                AIR SEA DIR/SP/G            HT/PER
                 (UTC)          (F)     (DEG/KT/KT) (MB)    (FT/S)
WAVELAND YACHT   0748            81 84  240/  5/  6 1017.8
GRAND ISLE       0748                   220/  5/  8   N/A
SOUTHWEST PASS   0748                   200/  5/  9   N/A
NEW CANAL        0742            81 85  210/  4/  5 1017.6
SHELL BEACH      0748            81 88  210/  5/  7 1017.9

OFFSHORE STATIONS

STATION/POSITION TIME  SKY/WX   TEMP    WIND        PRES    WAVE
                                AIR SEA DIR/SP/G            HT/PER
                 (UTC)          (F)     (DEG/KT/KT) (MB)    (FT/S)

$$





Office: LCH ASUS44 KLCH 210710 RWRLCH REGIONAL WEATHER ROUNDUP NATIONAL WEATHER SERVICE LAKE CHARLES LA 200 AM CDT TUE AUG 21 2018 Note: "fair" indicates few or no clouds below 12,000 feet with no significant weather and/or obstructions to visibility. ACROSS SOUTHEAST TEXAS CITY SKY/WX TMP DP RH WIND PRES REMARKS BEAUMONT NOT AVBL BEAUMONT CITY NOT AVBL ORANGE NOT AVBL JASPER NOT AVBL $$ ACROSS CENTRAL LOUISIANA CITY SKY/WX TMP DP RH WIND PRES REMARKS LEESVILLE NOT AVBL FULLERTON FAIR 80 78 94 CALM 30.00R ALEXANDRIA INT NOT AVBL ESLER FIELD NOT AVBL DERIDDER NOT AVBL OAKDALE NOT AVBL OPELOUSAS NOT AVBL $$ ACROSS SOUTHWEST AND SOUTH CENTRAL LOUISIANA CITY SKY/WX TMP DP RH WIND PRES REMARKS SULPHUR NOT AVBL LAKE CHARLES NOT AVBL CHENNAULT INT NOT AVBL CAMERON PHI NOT AVBL DEQUINCY NOT AVBL JENNINGS NOT AVBL LAFAYETTE NOT AVBL NEW IBERIA NOT AVBL ABBEVILLE NOT AVBL PATTERSON NOT AVBL SALT POINT N/A N/A N/A N/A VRB7 30.03S $$ SELECTED SITES ACROSS THE REGION CITY SKY/WX TMP DP RH WIND PRES REMARKS HOUSTON BUSH NOT AVBL HOUSTON HOBBY NOT AVBL GALVESTON NOT AVBL COLLEGE STAT NOT AVBL CONROE NOT AVBL HUNTSVILLE NOT AVBL LUFKIN NOT AVBL SHREVEPORT NOT AVBL MONROE NOT AVBL NATCHEZ MS NOT AVBL BATON ROUGE NOT AVBL N.O. INTL ARPT NOT AVBL SLIDELL NOT AVBL $$ MARINE REPORTS STATION/POSITION TIME SKY/WX TEMP WIND PRES VSBY AIR SEA DIR/SP/G (UTC) (F) (DEG/KT/KT) (MB) (MI) BUOY 30 S HIGH I NOT AVBL SEA RIM ST PARK NOT AVBL PORT ARTHUR NOT AVBL SABINE PASS N NOT AVBL TEXAS POINT NOT AVBL CALCASIEU PASS NOT AVBL LK CHARLES BEACH NOT AVBL MARSH ISLAND NOT AVBL FRESH WATER LOCK NOT AVBL AMERADA PASS NOT AVBL $$